Tracking 19224 objects as of 22-Jul-2018
HD Live streaming from Space Station
objects crossing your sky now

FENGYUN 1C DEB

Track FENGYUN 1C DEB now!
10-day predictions


NORAD ID: 32201
Int'l Code: 1999-025CUX
Perigee: 776.4 km
Apogee: 993.3 km
Inclination: 99.2 °
Period: 102.5 minutes
Semi major axis: 7255 km
RCS: 0.0094 m2 (small)
Launch date: May 10, 1999
Source: People's Republic of China (PRC)
Launch site: Taiyaun Space Center, China (TSC)

Note: This is SATELLITE DEBRIS
aabbcc
Your satellite tracking list
Your tracking list is empty




NASA's NSSDC Master Catalog

Two Line Element Set (TLE):
1 32201U 99025CUX 18202.31187167  .00000231  00000-0  15635-3 0  9999
2 32201  99.1936 221.2793 0149452 150.4575 210.5141 14.04658073581371
Source of the keplerian elements: AFSPC